This is the latest recevied weather packets stored in our database for station/object W8CEN. If no packets are shown the sender has not sent any weather packets the latest 1 day(s).
| Time | Temp. | Humidity | Pressure | Rain* | Wind** | Luminosity | Snow |
|---|---|---|---|---|---|---|---|
| 1777979521 | 15.56° C | 71% | 982.4 hPa | 0 mm | 0.89 m/s, 297° | 20 W/m² | - |
| 1777979217 | 15.56° C | 70% | 982.5 hPa | 0 mm | 1.34 m/s, 241° | 12 W/m² | - |
| 1777978915 | 15.56° C | 70% | 982.4 hPa | 0 mm | 0.89 m/s, 261° | 9 W/m² | - |
| 1777978612 | 15.56° C | 70% | 982.2 hPa | 0 mm | 0.45 m/s, 253° | 8 W/m² | - |
| 1777978307 | 15.56° C | 70% | 982.3 hPa | 0 mm | 0.89 m/s, 256° | 7 W/m² | - |
| 1777978004 | 16.11° C | 69% | 982.1 hPa | 0 mm | 1.34 m/s, 241° | 5 W/m² | - |
| 1777977702 | 16.11° C | 69% | 982.1 hPa | 0 mm | 1.34 m/s, 281° | 4 W/m² | - |
| 1777977398 | 16.11° C | 69% | 982 hPa | 0 mm | 1.34 m/s, 233° | 3 W/m² | - |
| 1777977096 | 16.11° C | 69% | 981.8 hPa | 0 mm | 1.34 m/s, 274° | 2 W/m² | - |
| 1777976793 | 16.11° C | 69% | 981.7 hPa | 0 mm | 0.89 m/s, 247° | 1 W/m² | - |
| 1777976491 | 16.11° C | 69% | 981.9 hPa | 0 mm | 0.89 m/s, 252° | 1 W/m² | - |
| 1777976189 | 16.11° C | 69% | 981.7 hPa | 0 mm | 0.89 m/s, 249° | 0 W/m² | - |
| 1777975885 | 16.11° C | 69% | 981.8 hPa | 0 mm | 0.89 m/s, 315° | 0 W/m² | - |
| 1777975581 | 16.67° C | 68% | 981.8 hPa | 0 mm | 1.34 m/s, 246° | 0 W/m² | - |
| 1777975279 | 16.67° C | 66% | 981.6 hPa | 0 mm | 1.34 m/s, 234° | 0 W/m² | - |
| 1777974975 | 17.22° C | 64% | 981.7 hPa | 0 mm | 1.34 m/s, 235° | 0 W/m² | - |
| 1777974671 | 17.22° C | 62% | 981.7 hPa | 0 mm | 1.79 m/s, 264° | 0 W/m² | - |
| 1777974368 | 17.22° C | 61% | 981.7 hPa | 0 mm | 1.79 m/s, 240° | 0 W/m² | - |
| 1777974064 | 17.22° C | 62% | 981.6 hPa | 0 mm | 1.34 m/s, 285° | 0 W/m² | - |
| 1777973760 | 16.67° C | 64% | 981.7 hPa | 0 mm | 1.79 m/s, 240° | 0 W/m² | - |
| 1777973458 | 16.67° C | 66% | 981.6 hPa | 0 mm | 0.89 m/s, 240° | 0 W/m² | - |
| 1777973155 | 16.67° C | 67% | 981.4 hPa | 0 mm | 0.89 m/s, 283° | 0 W/m² | - |
| 1777972854 | 16.67° C | 68% | 981.5 hPa | 0 mm | 0.89 m/s, 238° | 0 W/m² | - |
| 1777972550 | 16.67° C | 68% | 981.2 hPa | 0 mm | 1.79 m/s, 253° | 0 W/m² | - |
| 1777972249 | 16.67° C | 68% | 981.3 hPa | 0 mm | 0.89 m/s, 256° | 0 W/m² | - |
* Rain latest hour (hover to see other rain measurements)
** Current wind speed in m/s (hover to see current wind gust speed)